1483934400.58,60302,3.94,72638.8,-16.41,-17.35,-17.35,0,*65
1483934401.8,60303,3.94,72610.8,-16.41,-17.49,-17.49,0,*64
1483934403.07,60304,3.94,72594.5,-16.41,-17.45,-17.45,0,*63
1483934404.32,60305,3.94,72612.5,-16.43,-17.49,-17.49,0,*60
1483934405.55,60306,3.94,72608.0,-16.41,-17.35,-17.35,0,*61
1483934406.83,60307,3.94,72604.5,-16.39,-17.45,-17.35,0,*68
1483934408.08,60308,3.94,72596.0,-16.39,-17.35,-17.35,0,*60
1483934409.31,60309,3.94,72578.0,-16.41,-17.35,-17.35,0,*6E
1483934410.54,60310,3.94,72608.3,-16.41,-17.35,-17.35,0,*66
1483934411.82,60311,3.94,72608.3,-16.41,-17.45,-17.45,0,*67
1483934413.09,60312,3.94,72586.3,-16.41,-17.45,-17.59,0,*69
1483934414.32,60313,3.94,72584.0,-16.41,-17.35,-17.35,0,*65
1483934415.57,60314,3.94,72590.5,-16.41,-17.35,-17.45,0,*65
1483934416.81,60315,3.94,72552.3,-16.41,-17.25,-17.31,0,*66
1483934418.07,60316,3.94,72576.8,-16.43,-17.35,-17.35,0,*62
1483934419.34,60317,3.94,72586.0,-16.41,-17.25,-17.17,0,*60
1483934420.6,60318,3.94,72554.0,-16.43,-17.31,-17.21,0,*6D
1483934421.87,60319,4.0,72518.8,-16.41,-17.25,-17.25,0,*6F
1483934423.14,60320,3.94,72526.8,-16.41,-17.25,-17.17,0,*64
1483934424.41,60321,3.94,72504.8,-16.43,-17.35,-17.17,0,*66
1483934425.68,60322,3.94,72532.3,-16.41,-17.17,-17.17,0,*67
1483934426.96,60323,3.94,72532.3,-16.41,-17.25,-17.11,0,*61
1483934428.2,60324,3.94,72586.0,-16.41,-17.03,-16.97,0,*6D
1483934429.42,60325,3.94,72542.5,-16.41,-16.59,-16.55,0,*6C
1483934430.65,60326,3.94,72552.3,-16.41,-16.75,-16.75,0,*63
1483934431.9,60327,3.94,72570.8,-16.41,-16.75,-16.69,0,*6F
1483934433.15,60328,3.94,72576.8,-16.41,-16.69,-16.59,0,*6E
1483934434.37,60329,3.94,72586.0,-16.41,-16.89,-16.83,0,*66
1483934435.59,60330,3.94,72590.0,-16.41,-16.97,-16.83,0,*61
1483934436.84,60331,4.0,72564.3,-16.39,-16.83,-16.75,0,*63
1483934438.09,60332,3.94,72554.3,-16.37,-17.07,-16.97,0,*6F
1483934439.38,60333,3.94,72502.5,-16.39,-17.17,-17.25,0,*69
1483934440.62,60334,3.94,72562.5,-16.39,-17.31,-17.31,0,*6F
1483934441.88,60335,3.94,72534.3,-16.39,-17.35,-17.35,0,*6E
1483934443.18,60336,3.94,72510.3,-16.39,-17.45,-17.45,0,*6D
1483934444.44,60337,3.94,72558.5,-16.39,-17.35,-17.35,0,*6C
1483934445.69,60338,3.94,72620.5,-16.39,-17.35,-17.35,0,*63
1483934446.96,60339,3.94,72612.0,-16.39,-17.31,-17.17,0,*66
1483934448.23,60340,3.94,72636.0,-16.39,-17.11,-16.97,0,*63
1483934449.52,60341,3.94,72636.3,-16.39,-17.03,-17.11,0,*6E
1483934450.8,60342,4.0,72632.5,-16.39,-16.97,-17.11,0,*61
1483934452.1,60343,3.94,72604.3,-16.39,-17.17,-17.17,0,*6F
1483934453.36,60344,3.94,72594.8,-16.37,-17.21,-17.21,0,*66
1483934454.63,60345,3.94,72628.8,-16.39,-17.25,-17.31,0,*6C
1483934455.84,60346,3.94,72588.5,-16.41,-17.31,-17.31,0,*65
1483934457.08,60347,4.0,72566.0,-16.41,-17.31,-17.25,0,*61
1483934458.35,60348,3.94,72548.5,-16.39,-17.25,-17.31,0,*61
1483934459.57,60349,3.94,72610.5,-16.41,-17.31,-17.35,0,*6E
1483934460.8,60350,3.94,72628.0,-16.41,-17.35,-17.35,0,*62
1483934462.04,60351,3.94,72644.5,-16.39,-17.31,-17.31,0,*6C
1483934463.31,60352,3.94,72644.0,-16.41,-17.11,-17.11,0,*60
1483934464.55,60353,3.94,72644.5,-16.41,-17.03,-16.97,0,*6D
1483934465.8,60354,3.94,72638.8,-16.41,-16.97,-17.03,0,*6A
1483934467.02,60355,3.94,72604.0,-16.41,-16.83,-16.83,0,*67
1483934468.27,60356,3.94,72572.3,-16.39,-16.97,-16.89,0,*64
1483934469.48,60357,4.0,72554.0,-16.37,-16.97,-16.83,0,*61
1483934470.73,60358,3.94,72606.0,-16.39,-16.97,-16.97,0,*65
1483934471.97,60359,3.94,72632.0,-16.39,-16.89,-16.89,0,*64
1483934473.24,60360,3.94,72620.0,-16.39,-16.83,-16.69,0,*6A
1483934474.5,60361,3.94,72618.3,-16.39,-16.55,-16.55,0,*6F
1483934475.74,60362,4.0,72590.3,-16.39,-16.45,-16.55,0,*6D
1483934476.99,60363,4.0,72608.5,-16.37,-16.75,-16.69,0,*6E
1483934478.23,60364,3.94,72572.5,-16.35,-16.93,-16.83,0,*67
1483934479.5,60365,3.94,72560.3,-16.39,-17.03,-16.89,0,*68
1483934480.74,60366,3.94,72554.5,-16.37,-16.93,-16.69,0,*63
1483934481.95,60367,4.0,72584.5,-16.37,-16.97,-16.93,0,*63
1483934483.22,60368,3.94,72542.3,-16.37,-17.07,-17.11,0,*6F
1483934484.47,60369,3.94,72556.0,-16.37,-16.97,-17.07,0,*61
1483934485.71,60370,3.94,72566.0,-16.37,-16.55,-16.51,0,*65
1483934486.93,60371,3.94,72594.0,-16.37,-16.55,-16.55,0,*60
1483934488.15,60372,3.94,72624.8,-16.37,-16.41,-16.41,0,*63
1483934489.42,60373,3.94,72590.0,-16.35,-16.55,-16.51,0,*64
1483934490.65,60374,3.94,72532.3,-16.37,-16.55,-16.55,0,*65
1483934491.87,60375,3.94,72508.8,-16.37,-16.83,-16.83,0,*64
1483934493.11,60376,3.94,72500.5,-16.35,-16.97,-16.97,0,*65
1483934494.4,60377,4.0,72506.5,-16.35,-17.11,-17.25,0,*63
1483934495.69,60378,3.94,72496.0,-16.35,-17.21,-17.21,0,*6B
1483934496.93,60379,4.0,72508.0,-16.35,-17.31,-17.31,0,*6A
1483934498.17,60380,3.94,72476.5,-16.37,-17.31,-17.41,0,*69
1483934499.4,60381,3.94,72504.0,-16.37,-17.31,-17.25,0,*6A
1483934500.64,60382,3.94,72530.0,-16.35,-17.31,-17.31,0,*6E
1483934501.85,60383,3.94,72540.3,-16.37,-17.31,-17.31,0,*6D
1483934503.14,60384,3.94,72544.8,-16.35,-17.25,-17.25,0,*68
1483934504.41,60385,3.94,72536.5,-16.35,-17.31,-17.41,0,*6E
1483934505.67,60386,3.94,72544.8,-16.37,-17.55,-17.55,0,*68
1483934506.94,60387,3.94,72520.5,-16.37,-17.55,-17.45,0,*68
1483934508.21,60388,4.0,72524.0,-16.37,-17.41,-17.55,0,*63
1483934509.45,60389,3.94,72522.0,-16.37,-17.45,-17.69,0,*69
1483934510.72,60390,3.94,72518.8,-16.37,-17.59,-17.59,0,*6F
1483934511.93,60391,4.0,72520.8,-16.37,-17.69,-17.73,0,*65
1483934513.21,60392,3.94,72508.3,-16.37,-17.97,-17.97,0,*6D
1483934514.43,60393,3.94,72510.3,-16.37,-17.83,-17.83,0,*6C
1483934515.7,60394,3.94,72530.3,-16.37,-17.55,-17.55,0,*6B
1483934516.96,60395,3.94,72526.3,-16.37,-17.55,-17.55,0,*6A
1483934518.23,60396,3.94,72554.0,-16.37,-17.45,-17.45,0,*69
1483934519.5,60397,3.94,72570.3,-16.39,-17.25,-17.31,0,*63
1483934520.77,60398,3.94,72578.5,-16.37,-17.21,-17.25,0,*63
1483934522.03,60399,3.94,72606.0,-16.35,-17.31,-17.25,0,*61
1483934523.32,60400,3.94,72616.5,-16.35,-17.25,-17.21,0,*67
1483934524.59,60401,3.94,72624.3,-16.37,-17.21,-17.21,0,*60
1483934525.87,60402,3.94,72604.5,-16.37,-17.21,-17.07,0,*67
1483934527.11,60403,3.94,72582.0,-16.39,-17.31,-17.31,0,*6C
1483934528.37,60404,3.94,72600.3,-16.37,-17.25,-17.25,0,*65
1483934529.64,60405,3.94,72610.0,-16.37,-17.11,-17.11,0,*64
1483934530.94,60406,3.94,72604.5,-16.39,-17.25,-17.17,0,*68
1483934532.23,60407,4.0,72598.8,-16.39,-17.25,-17.17,0,*69
1483934533.5,60408,3.94,72588.3,-16.37,-17.21,-17.25,0,*6D
1483934534.73,60409,3.94,72590.8,-16.37,-17.31,-17.41,0,*6F
1483934536.01,60410,4.0,72588.8,-16.37,-17.41,-17.55,0,*65
1483934537.27,60411,3.94,72612.5,-16.39,-17.73,-17.63,0,*6E
1483934538.54,60412,3.94,72580.5,-16.37,-17.45,-17.55,0,*63
1483934539.79,60413,3.94,72592.5,-16.39,-17.31,-17.35,0,*69
1483934541.06,60414,3.94,72596.3,-16.37,-17.25,-17.25,0,*64
1483934542.33,60415,3.94,72556.8,-16.37,-17.25,-17.21,0,*61
1483934543.59,60416,4.0,72548.8,-16.37,-17.21,-17.25,0,*62
1483934544.87,60417,3.94,72596.8,-16.37,-17.21,-17.07,0,*63
1483934546.08,60418,3.94,72556.0,-16.37,-16.93,-16.83,0,*69
1483934547.32,60419,3.94,72518.0,-16.37,-17.03,-16.97,0,*65
1483934548.59,60420,3.94,72558.0,-16.37,-17.11,-17.11,0,*63
1483934549.8,60421,3.94,72582.3,-16.37,-16.97,-16.93,0,*66
1483934551.02,60422,3.94,72594.8,-16.37,-16.93,-16.83,0,*60
1483934552.24,60423,3.94,72570.8,-16.37,-16.79,-16.79,0,*60
1483934553.48,60424,3.94,72548.8,-16.39,-16.97,-16.89,0,*66
1483934554.77,60425,3.94,72596.3,-16.39,-17.11,-17.03,0,*6B
1483934555.99,60426,3.94,72612.3,-16.37,-16.97,-16.93,0,*61
1483934557.21,60427,3.94,72574.5,-16.37,-16.83,-16.83,0,*64
1483934558.51,60428,3.94,72612.0,-16.35,-17.07,-17.07,0,*69
1483934559.78,60429,3.94,72610.5,-16.37,-17.21,-17.11,0,*69
1483934561.05,60430,3.94,72600.3,-16.37,-17.21,-17.07,0,*66
1483934562.33,60431,3.94,72604.5,-16.37,-17.07,-17.07,0,*63
1483934563.62,60432,3.94,72598.8,-16.35,-17.11,-17.11,0,*62
1483934564.91,60433,3.94,72570.0,-16.35,-17.11,-17.21,0,*60
1483934566.21,60434,3.94,72550.8,-16.35,-17.25,-17.25,0,*64
1483934567.47,60435,3.94,72602.0,-16.35,-17.21,-17.31,0,*64
1483934568.77,60436,3.94,72638.3,-16.35,-17.21,-17.25,0,*62
1483934570.0,60437,3.94,72622.8,-16.35,-16.93,-16.97,0,*63
1483934571.25,60438,3.94,72620.3,-16.35,-16.79,-16.83,0,*6D
1483934572.47,60439,3.94,72606.3,-16.37,-16.83,-16.97,0,*6E
1483934573.76,60440,3.94,72626.3,-16.35,-17.11,-17.25,0,*60
1483934575.03,60441,3.94,72616.0,-16.33,-17.21,-17.21,0,*60
1483934576.33,60442,3.94,72620.5,-16.35,-17.41,-17.41,0,*65
1483934577.57,60443,3.94,72604.8,-16.37,-17.31,-17.41,0,*61
1483934578.86,60444,3.94,72618.0,-16.35,-17.25,-17.25,0,*63
1483934580.15,60445,3.94,72620.3,-16.35,-17.25,-17.41,0,*60
1483934581.39,60446,3.94,72606.8,-16.37,-17.25,-17.31,0,*66
1483934582.66,60447,3.94,72606.0,-16.35,-17.25,-17.31,0,*65
1483934583.89,60448,3.94,72620.5,-16.35,-17.31,-17.31,0,*6F
1483934585.17,60449,3.94,72626.3,-16.37,-17.41,-17.41,0,*6C
1483934586.38,60450,3.94,72624.3,-16.37,-17.31,-17.31,0,*64
1483934587.62,60451,3.94,72608.5,-16.37,-17.31,-17.41,0,*62
1483934588.89,60452,4.0,72636.5,-16.37,-17.41,-17.45,0,*62
1483934590.19,60453,3.94,72622.5,-16.35,-17.45,-17.45,0,*65
1483934591.42,60454,3.94,72610.0,-16.35,-17.31,-17.31,0,*62
1483934592.66,60455,3.94,72642.5,-16.35,-17.31,-17.31,0,*63
1483934593.95,60456,3.94,72620.0,-16.35,-17.41,-17.25,0,*62
1483934595.22,60457,3.94,72624.0,-16.37,-17.25,-17.25,0,*63
1483934596.46,60458,3.94,72644.3,-16.35,-16.97,-16.97,0,*6E
1483934597.7,60459,3.94,72630.5,-16.35,-16.97,-16.97,0,*6F
1483934599.0,60460,3.94,72628.0,-16.35,-17.25,-17.25,0,*65
1483934600.29,60461,3.94,72626.3,-16.35,-17.21,-17.11,0,*67
1483934601.57,60462,3.94,72630.8,-16.33,-17.03,-17.07,0,*65
1483934602.87,60463,3.94,72622.8,-16.35,-17.07,-17.07,0,*66
1483934604.14,60464,3.94,72644.3,-16.35,-17.07,-16.93,0,*6D
1483934605.38,60465,3.94,72630.0,-16.35,-16.97,-16.89,0,*6F
1483934606.62,60466,3.94,72594.3,-16.35,-16.97,-16.97,0,*63
1483934607.89,60467,3.94,72558.8,-16.33,-17.07,-17.07,0,*64
1483934609.19,60468,4.0,72584.5,-16.35,-17.21,-17.25,0,*69
1483934610.45,60469,3.94,72606.8,-16.35,-17.25,-17.31,0,*69
1483934611.72,60470,3.94,72602.5,-16.35,-17.07,-16.93,0,*68
1483934613.01,60471,3.94,72640.3,-16.35,-16.69,-16.65,0,*69
1483934614.3,60472,4.0,72622.5,-16.35,-16.51,-16.51,0,*66
1483934615.57,60473,4.0,72622.5,-16.35,-16.79,-16.69,0,*66
1483934616.85,60474,3.94,72638.5,-16.35,-16.97,-17.07,0,*68
1483934618.13,60475,3.94,72608.0,-16.33,-17.03,-17.07,0,*63
1483934619.37,60476,3.94,72618.5,-16.33,-17.25,-17.49,0,*6E
1483934620.66,60477,3.94,72628.3,-16.35,-17.59,-17.55,0,*6F
1483934621.95,60478,3.94,72606.3,-16.35,-17.55,-17.55,0,*6C
1483934623.25,60479,3.94,72548.0,-16.35,-17.41,-17.41,0,*6D
1483934624.55,60480,3.94,72594.5,-16.35,-17.45,-17.55,0,*6A
1483934625.82,60481,3.94,72552.8,-16.35,-17.41,-17.31,0,*6D
1483934627.06,60482,3.94,72528.8,-16.33,-17.35,-17.25,0,*6E
1483934628.3,60483,3.94,72568.0,-16.35,-17.31,-17.31,0,*68
1483934629.59,60484,3.94,72544.8,-16.35,-17.11,-17.11,0,*6F
1483934630.83,60485,3.94,72562.8,-16.35,-16.97,-16.83,0,*6B
1483934632.07,60486,3.94,72556.3,-16.35,-16.97,-16.93,0,*69
1483934633.34,60487,3.94,72588.0,-16.35,-17.07,-16.83,0,*61
1483934634.64,60488,3.94,72580.0,-16.35,-16.69,-16.65,0,*6F
1483934635.86,60489,3.94,72582.8,-16.33,-16.83,-16.79,0,*61
1483934637.1,60490,3.94,72574.5,-16.33,-16.75,-16.65,0,*6D
1483934638.37,60491,3.94,72556.3,-16.35,-16.79,-16.65,0,*66
1483934639.64,60492,3.94,72578.3,-16.35,-16.69,-16.79,0,*69
1483934640.86,60493,3.94,72572.0,-16.33,-16.75,-16.79,0,*63
1483934642.11,60494,3.94,72576.8,-16.33,-16.75,-16.65,0,*69
1483934643.37,60495,3.94,72550.5,-16.33,-16.65,-16.51,0,*6E
1483934644.6,60496,3.94,72568.0,-16.33,-16.75,-16.59,0,*64
1483934645.82,60497,3.94,72568.0,-16.33,-16.79,-16.59,0,*69
1483934647.07,60498,3.94,72574.8,-16.33,-16.65,-16.75,0,*65
1483934648.29,60499,3.94,72606.0,-16.33,-16.89,-16.75,0,*66
1483934649.53,60500,3.94,72614.3,-16.31,-16.93,-16.89,0,*6D
1483934650.77,60501,3.94,72584.8,-16.31,-16.75,-16.79,0,*6B
1483934652.02,60502,3.94,72586.3,-16.31,-16.89,-16.75,0,*67
1483934653.26,60503,3.94,72604.0,-16.31,-16.79,-16.89,0,*6A
1483934654.51,60504,3.94,72598.0,-16.31,-16.79,-16.79,0,*62
1483934655.75,60505,3.94,72618.0,-16.31,-16.79,-16.79,0,*63
1483934656.99,60506,3.94,72594.5,-16.31,-16.93,-16.93,0,*60
1483934658.29,60507,3.94,72594.5,-16.31,-17.03,-17.07,0,*65
1483934659.6,60508,3.94,72628.8,-16.31,-17.17,-17.07,0,*6F
1483934660.86,60509,3.94,72594.0,-16.29,-17.11,-17.11,0,*66
1483934662.16,60510,3.94,72624.5,-16.31,-17.07,-17.07,0,*67
1483934663.4,60511,3.94,72632.5,-16.29,-17.03,-16.89,0,*6C
1483934664.67,60512,3.94,72616.5,-16.29,-16.69,-16.69,0,*6C
1483934665.9,60513,3.94,72598.5,-16.29,-16.59,-16.75,0,*63
1483934667.13,60514,3.94,72580.3,-16.31,-16.93,-16.89,0,*68
1483934668.34,60515,3.94,72598.5,-16.29,-16.89,-16.93,0,*60
1483934669.61,60516,3.94,72608.3,-16.31,-17.03,-16.93,0,*69
1483934670.87,60517,3.94,72578.0,-16.31,-16.93,-17.03,0,*68
1483934672.18,60518,3.94,72570.8,-16.31,-17.07,-17.07,0,*6F
1483934673.47,60519,3.94,72594.8,-16.31,-17.07,-17.17,0,*6F
1483934674.76,60520,3.94,72564.0,-16.31,-17.07,-17.17,0,*65
1483934676.06,60521,3.94,72610.0,-16.31,-17.21,-17.21,0,*65
1483934677.35,60522,3.94,72604.5,-16.31,-17.21,-17.17,0,*63
1483934678.61,60523,3.94,72636.5,-16.29,-17.11,-17.17,0,*68
1483934679.86,60524,3.94,72590.0,-16.31,-16.89,-16.75,0,*63
1483934681.08,60525,3.94,72610.5,-16.29,-16.79,-16.75,0,*64
1483934682.32,60526,3.94,72590.8,-16.31,-16.89,-16.89,0,*62
1483934683.59,60527,3.94,72608.3,-16.29,-17.03,-17.17,0,*6F
1483934684.85,60528,3.94,72620.3,-16.29,-17.11,-17.11,0,*65
1483934686.07,60529,3.94,72624.5,-16.29,-16.83,-16.83,0,*64
1483934687.32,60530,3.94,72634.8,-16.29,-16.69,-16.59,0,*6F
1483934688.58,60531,3.94,72640.5,-16.31,-16.51,-16.45,0,*61
1483934689.84,60532,3.94,72646.8,-16.29,-16.31,-16.31,0,*6E
1483934691.06,60533,3.94,72634.5,-16.29,-16.45,-16.45,0,*6F
1483934692.28,60534,3.94,72620.8,-16.29,-16.75,-16.75,0,*68
1483934693.5,60535,3.94,72624.0,-16.29,-16.75,-16.75,0,*69
1483934694.72,60536,3.94,72612.8,-16.29,-16.83,-16.79,0,*6F
1483934695.93,60537,3.94,72614.5,-16.29,-16.89,-16.89,0,*6B
1483934697.17,60538,3.94,72614.5,-16.27,-16.97,-16.97,0,*6A
1483934698.41,60539,3.94,72586.8,-16.29,-16.97,-17.03,0,*69
1483934699.68,60540,3.94,72534.3,-16.29,-17.21,-17.17,0,*6E
1483934700.93,60541,3.94,72532.0,-16.29,-17.21,-17.35,0,*6F
1483934702.17,60542,3.94,72516.3,-16.29,-17.31,-17.21,0,*68
1483934703.43,60543,3.94,72520.0,-16.29,-17.21,-17.17,0,*6D
1483934704.7,60544,3.94,72532.3,-16.29,-17.21,-17.11,0,*6C
1483934705.92,60545,3.94,72572.5,-16.29,-16.89,-16.75,0,*6D
1483934707.19,60546,3.94,72558.3,-16.29,-17.11,-17.03,0,*6E
1483934708.46,60547,3.94,72566.3,-16.31,-17.03,-16.93,0,*6D
1483934709.73,60548,3.94,72532.5,-16.29,-17.17,-17.17,0,*63
1483934710.96,60549,3.94,72520.8,-16.29,-17.21,-17.31,0,*63
1483934712.23,60550,3.94,72544.0,-16.29,-17.21,-17.17,0,*6F
1483934713.5,60551,4.0,72538.0,-16.29,-17.21,-17.17,0,*6E
1483934714.77,60552,4.0,72556.0,-16.31,-17.41,-17.49,0,*69
1483934716.06,60553,3.94,72600.3,-16.27,-17.21,-17.21,0,*67
1483934717.28,60554,3.94,72602.0,-16.29,-16.97,-16.83,0,*6B
1483934718.5,60555,3.94,72626.3,-16.29,-16.55,-16.59,0,*63
1483934719.73,60556,3.94,72628.0,-16.29,-16.75,-16.75,0,*6C
1483934720.95,60557,3.94,72598.3,-16.29,-16.83,-16.83,0,*6D
1483934722.16,60558,4.0,72578.0,-16.29,-16.83,-16.89,0,*68
1483934723.38,60559,3.94,72556.0,-16.29,-16.83,-16.75,0,*6A
1483934724.61,60560,3.94,72556.5,-16.29,-16.83,-16.75,0,*60
1483934725.83,60561,3.94,72562.5,-16.29,-16.83,-16.83,0,*68
1483934727.12,60562,3.94,72542.5,-16.27,-16.69,-16.69,0,*65
1483934728.39,60563,3.94,72548.0,-16.27,-16.69,-16.55,0,*6B
1483934729.63,60564,3.94,72540.5,-16.27,-16.59,-16.59,0,*63
1483934730.9,60565,3.94,72560.0,-16.27,-16.55,-16.51,0,*66
1483934732.17,60566,3.94,72574.8,-16.27,-16.69,-16.59,0,*62
1483934733.44,60567,3.94,72562.8,-16.27,-16.69,-16.59,0,*63
1483934734.69,60568,3.94,72580.0,-16.27,-16.83,-16.75,0,*66
1483934735.93,60569,3.94,72536.8,-16.23,-16.83,-16.83,0,*6A
1483934737.18,60570,3.94,72526.0,-16.27,-16.75,-16.75,0,*66
1483934738.44,60571,3.94,72546.8,-16.27,-16.69,-16.45,0,*69
1483934739.71,60572,3.94,72526.3,-16.23,-16.65,-16.41,0,*66
1483934740.95,60573,3.94,72504.5,-16.23,-16.55,-16.55,0,*61
1483934742.22,60574,3.94,72516.8,-16.23,-16.51,-16.37,0,*66
1483934743.49,60575,3.94,72564.5,-16.27,-16.69,-16.59,0,*60
1483934744.75,60576,3.94,72530.5,-16.23,-16.69,-16.55,0,*6B
1483934746.02,60577,3.94,72558.8,-16.27,-16.69,-16.59,0,*62
1483934747.28,60578,3.94,72572.8,-16.27,-16.69,-16.45,0,*60
1483934748.53,60579,3.94,72618.8,-16.23,-16.55,-16.55,0,*6B
1483934749.82,60580,3.94,72626.8,-16.23,-16.65,-16.69,0,*61
1483934751.06,60581,4.0,72642.8,-16.27,-16.45,-16.45,0,*68
1483934752.32,60582,3.94,72642.5,-16.21,-16.23,-16.17,0,*6A
1483934753.58,60583,3.94,72612.5,-16.23,-16.27,-16.37,0,*6F
1483934754.85,60584,3.94,72604.5,-16.23,-16.27,-16.41,0,*69
1483934756.11,60585,3.94,72630.8,-16.21,-16.65,-16.69,0,*66
1483934757.35,60586,3.94,72612.0,-16.23,-16.79,-16.83,0,*6E
1483934758.59,60587,3.94,72614.8,-16.23,-16.93,-16.93,0,*6A
1483934759.86,60588,3.94,72600.8,-16.21,-17.07,-17.07,0,*67
1483934761.09,60589,3.94,72588.8,-16.21,-16.93,-17.11,0,*6D
1483934762.35,60590,3.94,72598.8,-16.21,-17.11,-17.11,0,*6E
1483934763.61,60591,4.0,72598.3,-16.21,-17.17,-17.17,0,*6F
1483934764.9,60592,3.94,72570.5,-16.23,-17.17,-17.17,0,*6E
1483934766.19,60593,3.94,72532.3,-16.23,-17.17,-17.17,0,*6F
1483934767.49,60594,3.94,72538.5,-16.23,-17.17,-17.11,0,*6E
1483934768.78,60595,3.94,72544.5,-16.27,-17.03,-17.03,0,*6D
1483934770.02,60596,3.94,72556.8,-16.23,-16.93,-16.97,0,*6E
1483934771.28,60597,3.94,72564.5,-16.23,-16.69,-16.79,0,*6A
1483934772.57,60598,3.94,72590.8,-16.23,-16.69,-16.69,0,*64
1483934773.82,60599,4.0,72602.3,-16.23,-16.79,-16.79,0,*65
1483934775.03,60600,3.94,72582.8,-16.21,-16.83,-16.83,0,*64
1483934776.25,60601,3.94,72592.8,-16.19,-16.97,-16.97,0,*6E
1483934777.54,60602,3.94,72544.8,-16.23,-17.07,-17.11,0,*63
1483934778.83,60603,3.94,72556.0,-16.23,-17.11,-17.17,0,*63
1483934780.1,60604,3.94,72606.8,-16.21,-17.07,-17.07,0,*60
1483934781.36,60605,3.94,72582.0,-16.21,-17.07,-17.11,0,*66
1483934782.62,60606,3.94,72568.5,-16.21,-17.11,-17.11,0,*62
1483934783.85,60607,3.94,72584.3,-16.21,-17.31,-17.25,0,*66
1483934785.14,60608,3.94,72562.3,-16.23,-17.11,-17.17,0,*68
1483934786.43,60609,3.94,72562.0,-16.23,-17.17,-17.17,0,*6F
1483934787.71,60610,3.94,72516.8,-16.23,-17.11,-17.17,0,*61
1483934789.0,60611,4.0,72550.0,-16.23,-17.25,-17.25,0,*66
1483934790.3,60612,3.94,72556.0,-16.23,-17.17,-17.17,0,*65
1483934791.57,60613,3.94,72564.8,-16.27,-17.17,-16.97,0,*69
1483934792.81,60614,3.94,72560.0,-16.23,-16.79,-16.79,0,*63
1483934794.1,60615,3.94,72566.0,-16.23,-16.65,-16.65,0,*62
1483934795.39,60616,3.94,72526.3,-16.23,-16.69,-16.69,0,*61
1483934796.64,60617,3.94,72562.0,-16.27,-16.97,-16.75,0,*68
1483934797.9,60618,3.94,72550.3,-16.23,-16.55,-16.51,0,*6B
1483934799.12,60619,3.94,72526.5,-16.21,-16.55,-16.55,0,*6C
1483934800.32,60620,4.0,72570.8,-16.21,-16.37,-16.37,0,*66
1483934801.59,60621,3.94,72536.0,-16.21,-16.69,-16.69,0,*67
1483934802.83,60622,3.94,72522.0,-16.19,-16.83,-16.69,0,*6B
1483934804.04,60623,4.0,72540.8,-16.21,-16.97,-16.97,0,*65
1483934805.31,60624,4.0,72570.5,-16.21,-17.11,-17.07,0,*65
1483934806.55,60625,3.94,72548.3,-16.19,-17.07,-16.93,0,*64
1483934807.79,60626,3.94,72580.0,-16.21,-17.11,-16.83,0,*6A
1483934809.0,60627,3.94,72634.8,-16.21,-16.97,-16.79,0,*61
1483934810.22,60628,4.0,72624.0,-16.19,-16.93,-16.83,0,*64
1483934811.47,60629,3.94,72604.8,-16.19,-16.79,-16.69,0,*65
1483934812.71,60630,3.94,72582.3,-16.23,-16.83,-16.79,0,*60
1483934813.95,60631,3.94,72602.8,-16.21,-16.97,-17.07,0,*6E
1483934815.19,60632,4.0,72614.3,-16.21,-16.97,-17.11,0,*6A
1483934816.44,60633,3.94,72614.5,-16.21,-17.11,-17.25,0,*63
1483934817.72,60634,3.94,72594.5,-16.19,-17.25,-17.41,0,*6A
1483934818.98,60635,3.94,72574.0,-16.21,-17.17,-17.17,0,*62
1483934820.24,60636,4.0,72624.3,-16.21,-17.17,-17.17,0,*61
1483934821.51,60637,3.94,72592.3,-16.21,-17.17,-17.11,0,*66
1483934822.75,60638,4.0,72616.3,-16.19,-17.07,-16.93,0,*68
1483934823.96,60639,3.94,72606.8,-16.21,-16.97,-16.93,0,*6A
1483934825.2,60640,3.94,72606.0,-16.21,-16.97,-17.07,0,*68
1483934826.43,60641,4.0,72612.8,-16.21,-17.07,-16.97,0,*69
1483934827.64,60642,3.94,72612.3,-16.21,-16.97,-16.93,0,*66
1483934828.88,60643,3.94,72600.5,-16.21,-17.07,-16.83,0,*6E
1483934830.09,60644,3.94,72580.3,-16.21,-16.93,-16.83,0,*65
1483934831.35,60645,3.94,72570.3,-16.21,-17.17,-17.25,0,*64
1483934832.62,60646,3.94,72588.8,-16.19,-17.17,-17.17,0,*6D
1483934833.84,60647,3.94,72596.5,-16.21,-16.97,-16.83,0,*62
1483934835.07,60648,3.94,72592.8,-16.21,-16.79,-16.65,0,*65
1483934836.31,60649,3.94,72620.0,-16.21,-16.79,-16.69,0,*68
1483934837.52,60650,3.94,72598.5,-16.21,-16.79,-16.79,0,*61
1483934838.79,60651,3.94,72570.5,-16.23,-16.83,-16.69,0,*66
1483934840.05,60652,3.94,72610.3,-16.23,-16.79,-16.69,0,*60
1483934841.29,60653,3.94,72590.3,-16.21,-16.79,-16.65,0,*6F
1483934842.53,60654,3.94,72592.8,-16.21,-16.65,-16.55,0,*66
1483934843.79,60655,3.94,72598.0,-16.21,-16.65,-16.51,0,*63
1483934845.03,60656,3.94,72612.5,-16.21,-16.55,-16.51,0,*63
1483934846.24,60657,3.94,72616.8,-16.21,-16.55,-16.37,0,*62
1483934847.45,60658,4.0,72628.3,-16.21,-16.41,-16.41,0,*69
1483934848.69,60659,3.94,72628.3,-16.21,-16.55,-16.65,0,*6B
1483934849.98,60660,3.94,72636.8,-16.23,-16.69,-16.65,0,*6C
1483934851.22,60661,3.94,72608.5,-16.21,-16.65,-16.55,0,*60
1483934852.49,60662,3.94,72614.0,-16.19,-16.69,-16.69,0,*6B
1483934853.73,60663,4.0,72620.0,-16.21,-16.79,-16.69,0,*60
1483934854.95,60664,3.94,72610.3,-16.19,-16.83,-16.89,0,*67
1483934856.16,60665,4.0,72610.0,-16.21,-16.97,-16.97,0,*67
1483934857.44,60666,3.94,72616.5,-16.19,-17.07,-17.07,0,*6F
1483934858.72,60667,3.94,72622.3,-16.19,-17.07,-17.07,0,*6E
1483934859.99,60668,3.94,72630.0,-16.19,-17.11,-17.17,0,*67
1483934861.26,60669,3.94,72598.5,-16.19,-17.25,-17.17,0,*61
1483934862.53,60670,3.94,72594.5,-16.21,-17.17,-17.07,0,*62
1483934863.81,60671,3.94,72576.8,-16.19,-17.17,-17.17,0,*69
1483934865.04,60672,4.0,72642.3,-16.21,-17.31,-17.25,0,*64
1483934866.3,60673,3.94,72594.5,-16.21,-17.17,-17.17,0,*60
1483934867.57,60674,3.94,72548.8,-16.19,-17.11,-17.17,0,*6A
1483934868.81,60675,3.94,72590.5,-16.19,-17.25,-17.31,0,*68
1483934870.08,60676,3.94,72600.5,-16.19,-17.25,-17.25,0,*6E
1483934871.34,60677,3.94,72614.5,-16.23,-17.11,-16.97,0,*69
1483934872.61,60678,3.94,72576.8,-16.21,-17.07,-17.07,0,*6B
1483934873.88,60679,3.94,72596.5,-16.21,-17.17,-17.17,0,*6A
1483934875.15,60680,3.94,72598.0,-16.19,-17.17,-17.11,0,*61
1483934876.41,60681,3.94,72600.8,-16.21,-17.11,-17.11,0,*6D
1483934877.67,60682,3.94,72608.5,-16.21,-17.11,-17.11,0,*6E
1483934878.92,60683,3.94,72604.0,-16.19,-17.07,-16.97,0,*6C
1483934880.13,60684,3.94,72598.0,-16.21,-16.83,-16.93,0,*69
1483934881.33,60685,3.94,72614.0,-16.21,-16.93,-16.79,0,*6D
1483934882.56,60686,4.0,72616.8,-16.19,-16.83,-16.83,0,*61
1483934883.82,60687,3.94,72618.0,-16.21,-16.69,-16.65,0,*67
1483934885.08,60688,3.94,72628.3,-16.21,-16.69,-16.65,0,*68
1483934886.31,60689,3.94,72640.3,-16.19,-16.83,-16.83,0,*6E
1483934887.51,60690,3.94,72656.0,-16.21,-16.97,-16.93,0,*69
1483934888.75,60691,3.94,72652.5,-16.19,-17.11,-16.97,0,*68
1483934890.02,60692,3.94,72626.3,-16.21,-17.07,-17.07,0,*6F
1483934891.28,60693,4.0,72620.0,-16.21,-17.11,-17.17,0,*68
1483934892.54,60694,3.94,72624.5,-16.21,-17.11,-17.17,0,*6F
1483934893.8,60695,3.94,72620.3,-16.21,-17.11,-17.07,0,*6F
1483934895.06,60696,3.94,72618.8,-16.21,-17.11,-17.11,0,*6B
1483934896.33,60697,3.94,72578.8,-16.19,-17.17,-17.17,0,*61
1483934897.6,60698,3.94,72600.8,-16.19,-17.11,-17.17,0,*68
1483934898.86,60699,4.0,72602.3,-16.21,-17.11,-17.17,0,*62
1483934900.12,60700,3.94,72584.0,-16.21,-17.11,-17.11,0,*65
1483934901.39,60701,3.94,72592.0,-16.19,-17.17,-17.17,0,*6F
1483934902.65,60702,3.94,72608.0,-16.21,-17.25,-17.17,0,*66